COSMOS 2092

Satellite information

Favourite Embed

Satellite Type and Status

PAYLOADIN ORBIT

Key statistics

Satellite COSMOS 2092 at a glance.

Uptime

12912

Days in orbit

Revolutions

≈ 12.6

Per day

Orbit

LEO

Low Earth Orbit

Inclination

82.6

Latest

Satellite identification and parameters

Extended collection of information and parameters for COSMOS 2092.

Object identification

Identified? True

Debris? False

Object name: COSMOS 2092

International designator: 1990-070C

Object number (NORAD): 20737

Object ID (CCSDS): 20737

Country: COMMONWEALTH OF INDEPENDENT STATES (CIS)

Current information (Y/N): Y

RCS size: LARGE

Orbital parameters

Period: 113.983 minutes

Inclination: 82.5695 deg

SMA: 7787.306 km

Apoapsis: 1412.693 km

Periapsis: 1405.649 km

RAAN: 65.4792 deg

Eccentricy: 0.00045226

Argument of periapsis: 182.6436 deg

Mean anomaly: 232.4313 deg

Mean motion: 12.63344883 rev/day

Mean motion (dot): 0.00000019 rev/day2

B* drag term: 0.000047804507 1/REarth

Two-line elements (TLE)

Creation date: Dec. 12, 2025, 10:14 a.m.

Reference frame: TEME

Reference center: EARTH

Epoch: Dec. 12, 2025, 6:30 a.m. UTC

TLE line 0: 0 COSMOS 2092

TLE line 1: 1 20737U 90070C 25346.27150075 .00000019 00000-0 47805-4 0 9990

TLE line 2: 2 20737 82.5695 65.4792 0004523 182.6436 232.4313 12.63344883629752

Live tracking on map

Real-time ground track for satellite COSMOS 2092.

In-orbit conjunctions

A list of the most updated potential collisions computed for object COSMOS 2092.

Target Orbit TCA Probability of collision Miss distance Type
COSMOS 2211 LEO 2024-08-22 23:59:41 0.000232995 46.0 (m) PAYLOAD

Associated space launch

Second generation store-dump military communications satellite

COSMOS 2092 was lifted into orbit during the mission ‘Tsiklon-3 | Strela-3 49 to 54’, on board a Tsiklon-3 space rocket.

The launch took place on Aug. 8, 1990, 4:15 a.m. from 32/2.

For more information about the launch, click the button.

Launch to space Tsiklon-3 | Strela-3 49 to 54
Tsiklon-3 | Strela-3 49 to 54

Agency: N/A

Status: Launch Successful

Launch date: Aug. 8, 1990, 4:15 a.m. UTC

Rocket: Tsiklon-3

Launch pad: 32/2

Location: Plesetsk Cosmodrome, Russian Federation

...

Latest news about this satellite

There are no fresh news available about this satellite. Check back as we update our databases every day.


Newsletter sign-up

Weekly statistics, charts and insights to help you stay on top of the space industry.